TimeHST,TemperatureF,Dew PointF,Humidity,Sea Level PressureIn,VisibilityMPH,Wind Direction,Wind SpeedMPH,Gust SpeedMPH,PrecipitationIn,Events,Conditions,WindDirDegrees,DateUTC
12:53 AM,66.9,66.0,97,29.99,10.0,Calm,Calm,-,N/A,,Clear,0,2013-11-19 10:53:00
1:53 AM,66.0,64.9,96,29.98,10.0,Calm,Calm,-,N/A,,Clear,0,2013-11-19 11:53:00
2:53 AM,64.9,63.0,93,29.97,10.0,Variable,3.5,-,N/A,,Clear,0,2013-11-19 12:53:00
3:53 AM,64.9,63.0,93,29.97,10.0,Calm,Calm,-,N/A,,Clear,0,2013-11-19 13:53:00
4:53 AM,64.0,62.1,93,29.97,10.0,Calm,Calm,-,N/A,,Clear,0,2013-11-19 14:53:00
5:53 AM,64.0,61.0,90,29.98,10.0,Calm,Calm,-,N/A,,Clear,0,2013-11-19 15:53:00
6:53 AM,64.0,61.0,90,29.99,10.0,Calm,Calm,-,N/A,,Clear,0,2013-11-19 16:53:00
7:53 AM,69.1,63.0,81,30.00,10.0,Calm,Calm,-,N/A,,Clear,0,2013-11-19 17:53:00
8:53 AM,75.9,66.0,71,30.00,10.0,Calm,Calm,-,N/A,,Clear,0,2013-11-19 18:53:00
9:53 AM,79.0,68.0,69,30.01,10.0,East,4.6,-,N/A,,Clear,100,2013-11-19 19:53:00
10:53 AM,79.0,69.1,72,29.99,10.0,SE,9.2,-,N/A,,Clear,140,2013-11-19 20:53:00
11:53 AM,79.0,69.1,72,29.96,10.0,SE,9.2,-,N/A,,Clear,140,2013-11-19 21:53:00
12:53 PM,80.1,70.0,71,29.94,10.0,SE,10.4,-,N/A,,Clear,140,2013-11-19 22:53:00
1:53 PM,80.1,70.0,71,29.91,10.0,SE,6.9,-,N/A,,Clear,130,2013-11-19 23:53:00
2:53 PM,79.0,69.1,72,29.90,10.0,SE,8.1,-,N/A,,Clear,140,2013-11-20 00:53:00
3:53 PM,78.1,70.0,76,29.91,10.0,SE,6.9,-,N/A,,Clear,130,2013-11-20 01:53:00
4:53 PM,77.0,70.0,79,29.92,10.0,SE,5.8,-,N/A,,Partly Cloudy,140,2013-11-20 02:53:00
5:41 PM,75.2,69.8,83,29.93,10.0,Calm,Calm,-,N/A,,Partly Cloudy,0,2013-11-20 03:41:00
5:53 PM,75.0,69.1,82,29.96,10.0,Calm,Calm,-,N/A,,Scattered Clouds,0,2013-11-20 03:53:00
6:01 PM,75.2,69.8,83,29.94,10.0,East,3.5,-,N/A,,Mostly Cloudy,80,2013-11-20 04:01:00
6:14 PM,73.4,69.8,88,29.94,10.0,Calm,Calm,-,N/A,,Scattered Clouds,0,2013-11-20 04:14:00
6:23 PM,73.4,69.8,88,29.94,10.0,Calm,Calm,-,N/A,,Mostly Cloudy,0,2013-11-20 04:23:00
6:34 PM,73.4,69.8,88,29.94,10.0,Calm,Calm,-,N/A,,Partly Cloudy,0,2013-11-20 04:34:00
6:53 PM,72.0,69.1,91,29.97,10.0,Calm,Calm,-,N/A,,Partly Cloudy,0,2013-11-20 04:53:00
7:09 PM,71.6,69.8,94,29.96,10.0,Calm,Calm,-,N/A,,Mostly Cloudy,0,2013-11-20 05:09:00
7:20 PM,71.6,68.0,88,29.96,10.0,Calm,Calm,-,N/A,,Scattered Clouds,0,2013-11-20 05:20:00
7:53 PM,71.1,68.0,90,29.99,9.0,Calm,Calm,-,N/A,,Clear,0,2013-11-20 05:53:00
8:00 PM,71.6,68.0,88,29.97,9.0,Calm,Calm,-,N/A,,Partly Cloudy,0,2013-11-20 06:00:00
8:53 PM,71.1,68.0,90,29.99,10.0,Calm,Calm,-,N/A,,Clear,0,2013-11-20 06:53:00
9:53 PM,70.0,66.9,90,30.01,10.0,Calm,Calm,-,N/A,,Clear,0,2013-11-20 07:53:00
10:53 PM,69.1,66.0,90,30.02,10.0,Calm,Calm,-,N/A,,Clear,0,2013-11-20 08:53:00
11:53 PM,68.0,64.9,90,30.01,10.0,Calm,Calm,-,N/A,,Clear,0,2013-11-20 09:53:00